Overview Statistics Trail Chart Weather Telemetry Raw packets
 

This is the latest recevied weather packets stored in our database for station/object M0HPP-13. If no packets are shown the sender has not sent any weather packets the latest 10 day(s).

<< 22 23 24 25 26 27 28 >>
Time Temp. Humidity Pressure Rain* Wind** Luminosity Snow
1788290886 11.11° C 79% 1010 hPa 0 mm - 2 W/m² -
1788290287 11.67° C 76% 1009.8 hPa 0 mm - 7 W/m² -
1788288503 12.78° C 72% 1009.5 hPa 0 mm - 19 W/m² -
1788287886 12.78° C 71% 1009.4 hPa 0 mm - 27 W/m² -
1788287286 13.33° C 71% 1009.4 hPa 0 mm - 36 W/m² -
1788286686 13.33° C 69% 1009.4 hPa 0 mm - 42 W/m² -
1788286086 13.89° C 68% 1009.3 hPa 0 mm - 43 W/m² -
1788285486 13.89° C 68% 1009.3 hPa 0 mm - 51 W/m² -
1788284886 13.89° C 66% 1009.2 hPa 0 mm - 71 W/m² -
1788284286 14.44° C 62% 1009.1 hPa 0 mm - 96 W/m² -
1788283686 15° C 62% 1009.1 hPa 0 mm - 127 W/m² -
1788283086 14.44° C 63% 1009.1 hPa 0 mm - 164 W/m² -
1788282486 15° C 61% 1009 hPa 0 mm - 98 W/m² -
1788281886 15.56° C 59% 1009 hPa 0 mm - 183 W/m² -
1788281286 15.56° C 57% 1008.9 hPa 0 mm - 213 W/m² -
1788280686 15.56° C 57% 1008.8 hPa 0 mm - 199 W/m² -
1788280086 15.56° C 55% 1008.7 hPa 0 mm - 146 W/m² -
1788279486 16.11° C 56% 1008.6 hPa 0 mm - 225 W/m² -
1788278886 16.11° C 57% 1008.5 hPa 0 mm - 267 W/m² -
1788278286 15.56° C 59% 1008.4 hPa 0 mm - 289 W/m² -
1788277686 15.56° C 60% 1008.4 hPa 0 mm - 223 W/m² -
1788277086 16.67° C 56% 1008.5 hPa 0 mm - 254 W/m² -
1788276486 16.11° C 56% 1008.4 hPa 0 mm - 342 W/m² -
1788275886 16.11° C 54% 1008.3 hPa 0 mm - 248 W/m² -
1788275286 16.67° C 58% 1008.2 hPa 0 mm - 349 W/m² -

* Rain latest hour (hover to see other rain measurements)
** Current wind speed in m/s (hover to see current wind gust speed)